FENGYUN 1C DEB *, 46993

Orbit data source: Space-Track

FENGYUN 1C DEB *, 46993 is space debris in SSO originally from a launch on Mon, 10 May 1999 UTC launched from the Taiyaun Space Center, China (TSC). Fengyun 1C debris stems from the Chinese weather satellite Fengyun-1C, which was intentionally destroyed by a Chinese anti-satellite missile in 2007. This event dramatically increased the amount of space debris, with thousands of trackable fragments posing hazards to satellites and human spaceflight. The Fengyun 1C debris cloud has become a focal point in discussions about space sustainability and the need for international regulations to prevent the creation of new debris.

Loading next visibility...
FENGYUN 1C DEB * details
Identifier
46993, 1999-025EZT
Orbit
SSO
Last TLE update18 hours ago
Origin
Flag of CNCASC (CN / PRC)
ManufacturerUnknown
MissionSpacecraft
Bus & MotorUnknown
MassUnknown
Launch date (UTC)
1999-05-10 (26 years ago)
Launch vehicleUnknown
Launch site
Taiyaun Space Center, China (TSC)
Object type
Payload
Rocket body
Debris
Shape & HBRUnknown
Radar Cross SectionSmall (<0.1 m²)

Expand to show TLE details & history

TLE from 18 hours ago
0 FENGYUN 1C DEB *
1 46993U 99025EZT 24361.20921433  .00000820  00000-0  77813-3 0  9995
2 46993  98.6814 147.2450 0265194 150.6556  23.3759 13.68812070554477
Epoch: 2024-12-26T05:01Z
Definitive object data (Epoch: 2024-12-26T05:01:16.118Z)
Latitude4.58391°
Longitude157.43364°
Altitude827.323 km
Speed7.529 km/s
True Right ascension21h 51m 46s
True Declination4° 33' 25"
Sunlit
Object was in daylight at TLE epoch
Visualization TLE readout
Latitude-12.27489°
Longitude155.50425°
Altitude864.695 km
Speed7.492 km/s
Apparent Right ascension21h 04m 57s
Apparent Declination-68° 19' 30"
Sunlit
Object is in daylight
Visualization observer readout
Local Sidereal Time22:01:44
Azimuth185.489° SSW
Elevation-18.764°
Doppler factor1
Orbital elements
Apogee altitude1,196.754 km
Perigee altitude805.37 km
Semi-major axis7,379.199 km
Eccentricity0.0265194
Inclination98.6814°
RAAN147.245°
Arg. of periapsis150.6556°
True anomaly24.61931°
Mean anomaly23.3759°
Eccentric anomaly23.99376°
Mean motion3.42397 °/min
BSTAR0.00077813
Orbital period105.14 mins
Loading maneuver chart data...
Loading historical data...
Loading historical data...
Loading historical data...
Loading historical data...
Loading historical data...
Loading historical data...
Loading historical data...

FENGYUN 1C DEB * Visibility forecast

Observer location: undefined°, undefined

Span
Click to sort rows by Start time (UTC) header in descending order
Start Az.
Max El. time (UTC)
Max El. Az.
Max El.
End time (UTC)
End Az.
7 mins2024-12-27 00:04:33.589Z339.395° N2024-12-27 00:07:33.589Z300.909° NW20.153°2024-12-27 00:11:33.589Z249.072° W
7 mins2024-12-27 08:25:33.589Z97.534° ESE2024-12-27 08:28:33.589Z66.958° ENE18.43°2024-12-27 08:32:33.589Z23.616° NE
11 mins2024-12-27 10:06:33.589Z173.907° S2024-12-27 10:12:33.589Z279.118° WNW43.486°2024-12-27 10:17:33.589Z340.947° N
|